Flag for Hungary Weather past 2 weeks in Miskolc, Hungary

Now
60 °F

Overcast.


Feels Like: 60 °F
Forecast: 45 / 64 °F
Wind: 1 mph from Southwest

Location: Miskolc

Current Time: Apr 28, 2015 at 8:51:07 PM

Latest Report: Apr 28, 2015 at 8:00 PM


Visibility: 19 mi

Pressure: 29.69 "Hg

Humidity: 73%

Dew point: 51 °F

Location of MiskolcLocation

Historic Weather in Miskolc — Graph

°F

Miskolc temperature yesterday

Maximum temperature yesterday: 76 °F (at 5:00 PM)
Minimum temperature yesterday: 47 °F (at 6:00 AM)
Average temperature yesterday: 62 °F

Past Weeks' High & Low Weather Summary

 TemperatureHumidityPressure
High81 °F (Apr 16, 2:00 PM)86% (Apr 27, 6:00 AM)30.31 "Hg (Apr 27, 6:00 AM)
Low31 °F (Apr 19, 6:00 AM)14% (Apr 16, 5:00 PM)29.65 "Hg (Apr 28, 6:00 AM)
Average56 °F50%29.98 "Hg
* Reported Apr 13 8:00 PM — Apr 28 8:00 PM, Miskolc, Weather by CustomWeather, © 2015

Note: Actual official high and low records may vary slightly from our data, if they occured in-between our weather recording intervals... More about our weather records

Advertising

Miskolc weather history for previous 24 hours

 ConditionsComfort  
Time TempWeatherWind HumidityBarometerVisibility
8:00 PM
Tue, Apr 28
60 °FOvercast.1 mph73%29.69 "Hg19 mi
7:00 PM61 °FSprinkles. Overcast.1 mph67%29.68 "Hg19 mi
6:00 PM63 °FOvercast.2 mph59%29.68 "Hg19 mi
5:00 PM65 °FOvercast.2 mph49%29.67 "Hg19 mi
4:00 PM66 °FOvercast.2 mph48%29.68 "Hg19 mi
3:00 PM66 °FOvercast.2 mph47%29.69 "Hg19 mi
2:00 PM64 °FOvercast.1 mph56%29.70 "Hg19 mi
1:00 PM63 °FLight rain. Overcast.1 mph60%29.71 "Hg19 mi
12:00 PM66 °FOvercast.1 mph52%29.70 "Hg19 mi
11:00 AM64 °FOvercast.3 mph59%29.71 "Hg19 mi
10:00 AM64 °FOvercast.3 mph56%29.68 "Hg19 mi
9:00 AM61 °FOvercast.3 mph62%29.67 "Hg19 mi
8:00 AM59 °FOvercast.2 mph67%29.67 "Hg19 mi
7:00 AM60 °FOvercast.1 mph64%29.65 "Hg19 mi
6:00 AM60 °FOvercast.2 mph65%29.65 "Hg19 mi
5:00 AM61 °FOvercast.2 mph61%29.65 "Hg19 mi
4:00 AM61 °FOvercast.2 mph60%29.66 "Hg19 mi
3:00 AM62 °FOvercast.2 mph55%29.68 "Hg22 mi
2:00 AM57 °FPassing clouds.No wind73%29.68 "Hg22 mi
1:00 AM58 °FPassing clouds.1 mph68%29.69 "Hg22 mi
12:00 AM62 °FPassing clouds.2 mph62%29.70 "Hg22 mi
10:00 PM
Mon, Apr 27
60 °FPassing clouds.1 mph64%29.72 "Hg22 mi
9:00 PM62 °FPassing clouds.1 mph58%29.72 "Hg22 mi
8:00 PM68 °FPassing clouds.No wind45%29.71 "Hg22 mi
Weather by CustomWeather, © 2015

See weather overviewHow to use our weather pages